Time,TemperatureF,DewpointF,PressureIn,WindDirection,WindDirectionDegrees,WindSpeedMPH,WindSpeedGustMPH,Humidity,HourlyPrecipIn,Conditions,Clouds,dailyrainin,SoftwareType,DateUTC
2013-05-26 00:02:00,52.2,39.6,30.16,East,90,0.0,1.0,62,0.00,,,0.00,Wunderground v.1.15,2013-05-26 04:02:00,
2013-05-26 00:03:00,52.2,40.0,30.16,East,90,0.0,1.0,63,0.00,,,0.00,Wunderground v.1.15,2013-05-26 04:03:00,
2013-05-26 00:04:00,52.1,39.5,30.16,ESE,107,0.0,1.0,62,0.00,,,0.00,Wunderground v.1.15,2013-05-26 04:04:00,
2013-05-26 00:09:00,52.1,39.5,30.16,East,87,0.0,1.0,62,0.00,,,0.00,Wunderground v.1.15,2013-05-26 04:09:00,
2013-05-26 00:14:00,51.9,41.3,30.16,WSW,243,0.0,1.0,67,0.00,,,0.00,Wunderground v.1.15,2013-05-26 04:14:00,
2013-05-26 00:20:00,51.7,38.7,30.16,WSW,243,0.0,1.0,61,0.00,,,0.00,Wunderground v.1.15,2013-05-26 04:20:00,
2013-05-26 00:25:00,51.4,40.8,30.16,WSW,243,0.0,1.0,67,0.00,,,0.00,Wunderground v.1.15,2013-05-26 04:25:00,
2013-05-26 00:31:00,51.3,39.1,30.16,ENE,74,0.0,1.0,63,0.00,,,0.00,Wunderground v.1.15,2013-05-26 04:31:00,
2013-05-26 00:36:00,51.4,40.4,30.16,ENE,74,0.0,1.0,66,0.00,,,0.00,Wunderground v.1.15,2013-05-26 04:36:00,
2013-05-26 00:42:00,51.3,39.5,30.16,ENE,74,0.0,1.0,64,0.00,,,0.00,Wunderground v.1.15,2013-05-26 04:42:00,
2013-05-26 00:47:00,51.3,39.9,30.16,ENE,74,0.0,1.0,65,0.00,,,0.00,Wunderground v.1.15,2013-05-26 04:47:00,
2013-05-26 00:52:00,51.2,42.5,30.16,ENE,74,0.0,1.0,72,0.00,,,0.00,Wunderground v.1.15,2013-05-26 04:52:00,
2013-05-26 00:57:00,50.9,40.7,30.16,ENE,74,0.0,1.0,68,0.00,,,0.00,Wunderground v.1.15,2013-05-26 04:57:00,
2013-05-26 01:02:00,50.5,41.4,30.17,ENE,74,0.0,4.0,71,0.00,,,0.00,Wunderground v.1.15,2013-05-26 05:02:00,
2013-05-26 01:08:00,50.2,40.8,30.16,ENE,74,0.0,4.0,70,0.00,,,0.00,Wunderground v.1.15,2013-05-26 05:08:00,
2013-05-26 01:13:00,49.9,41.2,30.17,ENE,74,0.0,4.0,72,0.00,,,0.00,Wunderground v.1.15,2013-05-26 05:13:00,
2013-05-26 01:18:00,49.6,40.6,30.16,ENE,74,0.0,4.0,71,0.00,,,0.00,Wunderground v.1.15,2013-05-26 05:18:00,
2013-05-26 01:24:00,49.3,41.4,30.16,ENE,74,0.0,4.0,74,0.00,,,0.00,Wunderground v.1.15,2013-05-26 05:24:00,
2013-05-26 01:32:00,49.0,41.1,30.16,ENE,74,0.0,4.0,74,0.00,,,0.00,Wunderground v.1.15,2013-05-26 05:32:00,
2013-05-26 01:37:00,48.7,41.5,30.16,ENE,74,0.0,4.0,76,0.00,,,0.00,Wunderground v.1.15,2013-05-26 05:37:00,
2013-05-26 01:43:00,48.5,40.6,30.16,ENE,74,0.0,4.0,74,0.00,,,0.00,Wunderground v.1.15,2013-05-26 05:43:00,
2013-05-26 01:48:00,48.3,41.4,30.16,ENE,74,0.0,4.0,77,0.00,,,0.00,Wunderground v.1.15,2013-05-26 05:48:00,
2013-05-26 01:54:00,48.1,40.9,30.16,ENE,74,0.0,4.0,76,0.00,,,0.00,Wunderground v.1.15,2013-05-26 05:54:00,
2013-05-26 02:00:00,48.0,41.5,30.16,ENE,74,0.0,4.0,78,0.00,,,0.00,Wunderground v.1.15,2013-05-26 06:00:00,
2013-05-26 02:05:00,48.0,41.8,30.16,ENE,74,0.0,4.0,79,0.00,,,0.00,Wunderground v.1.15,2013-05-26 06:05:00,
2013-05-26 02:11:00,47.9,41.0,30.15,West,273,0.0,4.0,77,0.00,,,0.00,Wunderground v.1.15,2013-05-26 06:11:00,
2013-05-26 02:16:00,48.1,41.9,30.15,West,275,0.0,4.0,79,0.00,,,0.00,Wunderground v.1.15,2013-05-26 06:16:00,
2013-05-26 02:21:00,48.3,41.4,30.16,West,275,0.0,4.0,77,0.00,,,0.00,Wunderground v.1.15,2013-05-26 06:21:00,
2013-05-26 02:27:00,48.4,39.1,30.16,NE,44,0.0,4.0,70,0.00,,,0.00,Wunderground v.1.15,2013-05-26 06:27:00,
2013-05-26 02:32:00,48.9,41.7,30.16,NE,44,0.0,4.0,76,0.00,,,0.00,Wunderground v.1.15,2013-05-26 06:32:00,
2013-05-26 02:37:00,49.2,42.3,30.16,NE,44,0.0,4.0,77,0.00,,,0.00,Wunderground v.1.15,2013-05-26 06:37:00,
2013-05-26 02:42:00,49.2,42.0,30.16,NE,44,0.0,4.0,76,0.00,,,0.00,Wunderground v.1.15,2013-05-26 06:42:00,
2013-05-26 02:48:00,49.4,40.0,30.16,ENE,76,0.0,4.0,70,0.00,,,0.00,Wunderground v.1.15,2013-05-26 06:48:00,
2013-05-26 02:53:00,49.5,39.4,30.16,East,91,1.0,4.0,68,0.00,,,0.00,Wunderground v.1.15,2013-05-26 06:53:00,
2013-05-26 02:59:00,49.6,39.8,30.16,ENE,76,1.0,4.0,69,0.00,,,0.00,Wunderground v.1.15,2013-05-26 06:59:00,
2013-05-26 03:04:00,49.6,39.5,30.15,ENE,69,1.0,4.0,68,0.00,,,0.00,Wunderground v.1.15,2013-05-26 07:04:00,
2013-05-26 03:09:00,49.6,41.7,30.16,ENE,69,1.0,4.0,74,0.00,,,0.00,Wunderground v.1.15,2013-05-26 07:09:00,
2013-05-26 03:15:00,49.2,41.6,30.16,ENE,69,0.0,4.0,75,0.00,,,0.00,Wunderground v.1.15,2013-05-26 07:15:00,
2013-05-26 03:22:00,48.6,41.4,30.16,ENE,69,0.0,4.0,76,0.00,,,0.00,Wunderground v.1.15,2013-05-26 07:22:00,
2013-05-26 03:27:00,48.2,41.3,30.16,ENE,69,0.0,4.0,77,0.00,,,0.00,Wunderground v.1.15,2013-05-26 07:27:00,
2013-05-26 03:34:00,47.7,41.2,30.16,ENE,69,0.0,4.0,78,0.00,,,0.00,Wunderground v.1.15,2013-05-26 07:34:00,
2013-05-26 03:40:00,47.4,41.2,30.15,ENE,69,0.0,4.0,79,0.00,,,0.00,Wunderground v.1.15,2013-05-26 07:40:00,
2013-05-26 03:46:00,47.0,41.1,30.15,ENE,69,0.0,4.0,80,0.00,,,0.00,Wunderground v.1.15,2013-05-26 07:46:00,
2013-05-26 03:52:00,46.6,41.4,30.15,ENE,69,0.0,4.0,82,0.00,,,0.00,Wunderground v.1.15,2013-05-26 07:52:00,
2013-05-26 03:58:00,46.3,41.1,30.15,ENE,69,0.0,4.0,82,0.00,,,0.00,Wunderground v.1.15,2013-05-26 07:58:00,
2013-05-26 04:04:00,45.9,41.0,30.15,ENE,69,0.0,4.0,83,0.00,,,0.00,Wunderground v.1.15,2013-05-26 08:04:00,
2013-05-26 04:09:00,45.7,41.1,30.15,ENE,69,0.0,4.0,84,0.00,,,0.00,Wunderground v.1.15,2013-05-26 08:09:00,
2013-05-26 04:15:00,45.4,41.2,30.15,ENE,69,0.0,4.0,85,0.00,,,0.00,Wunderground v.1.15,2013-05-26 08:15:00,
2013-05-26 04:21:00,45.1,40.9,30.15,ENE,69,0.0,4.0,85,0.00,,,0.00,Wunderground v.1.15,2013-05-26 08:21:00,
2013-05-26 04:26:00,45.0,40.8,30.15,ENE,69,0.0,4.0,85,0.00,,,0.00,Wunderground v.1.15,2013-05-26 08:26:00,
2013-05-26 04:33:00,44.6,40.7,30.15,ENE,69,0.0,4.0,86,0.00,,,0.00,Wunderground v.1.15,2013-05-26 08:33:00,
2013-05-26 04:39:00,44.5,40.6,30.16,ENE,69,0.0,4.0,86,0.00,,,0.00,Wunderground v.1.15,2013-05-26 08:39:00,
2013-05-26 04:45:00,44.2,40.0,30.16,ENE,69,0.0,4.0,85,0.00,,,0.00,Wunderground v.1.15,2013-05-26 08:45:00,
2013-05-26 04:50:00,44.0,40.1,30.16,ENE,69,0.0,4.0,86,0.00,,,0.00,Wunderground v.1.15,2013-05-26 08:50:00,
2013-05-26 04:56:00,43.9,40.0,30.16,ENE,69,0.0,4.0,86,0.00,,,0.00,Wunderground v.1.15,2013-05-26 08:56:00,
2013-05-26 05:01:00,43.7,39.8,30.16,ENE,69,0.0,4.0,86,0.00,,,0.00,Wunderground v.1.15,2013-05-26 09:01:00,
2013-05-26 05:06:00,43.6,39.7,30.16,ENE,69,0.0,0.0,86,0.00,,,0.00,Wunderground v.1.15,2013-05-26 09:06:00,
2013-05-26 05:12:00,43.4,40.1,30.16,ENE,69,0.0,0.0,88,0.00,,,0.00,Wunderground v.1.15,2013-05-26 09:12:00,
2013-05-26 05:17:00,43.3,40.0,30.16,ENE,69,0.0,0.0,88,0.00,,,0.00,Wunderground v.1.15,2013-05-26 09:17:00,
2013-05-26 05:23:00,43.2,41.0,30.16,ENE,69,0.0,0.0,92,0.00,,,0.00,Wunderground v.1.15,2013-05-26 09:23:00,
2013-05-26 05:28:00,43.3,40.0,30.17,ENE,69,0.0,0.0,88,0.00,,,0.00,Wunderground v.1.15,2013-05-26 09:28:00,
2013-05-26 05:33:00,43.4,40.1,30.17,ENE,69,0.0,0.0,88,0.00,,,0.00,Wunderground v.1.15,2013-05-26 09:33:00,
2013-05-26 05:39:00,43.4,40.1,30.17,ENE,69,0.0,0.0,88,0.00,,,0.00,Wunderground v.1.15,2013-05-26 09:39:00,
2013-05-26 05:46:00,43.3,40.0,30.17,ENE,69,0.0,0.0,88,0.00,,,0.00,Wunderground v.1.15,2013-05-26 09:46:00,
2013-05-26 05:51:00,43.2,39.9,30.17,ENE,69,0.0,0.0,88,0.00,,,0.00,Wunderground v.1.15,2013-05-26 09:51:00,
2013-05-26 05:57:00,43.1,40.1,30.17,ENE,69,0.0,0.0,89,0.00,,,0.00,Wunderground v.1.15,2013-05-26 09:57:00,
2013-05-26 06:02:00,42.9,39.9,30.17,ENE,69,0.0,1.0,89,0.00,,,0.00,Wunderground v.1.15,2013-05-26 10:02:00,
2013-05-26 06:08:00,42.8,39.8,30.18,ENE,69,0.0,1.0,89,0.00,,,0.00,Wunderground v.1.15,2013-05-26 10:08:00,
2013-05-26 06:13:00,42.7,39.7,30.17,ENE,69,0.0,1.0,89,0.00,,,0.00,Wunderground v.1.15,2013-05-26 10:13:00,
2013-05-26 06:19:00,42.7,40.0,30.17,ENE,69,0.0,1.0,90,0.00,,,0.00,Wunderground v.1.15,2013-05-26 10:19:00,
2013-05-26 06:24:00,42.7,40.3,30.18,ENE,69,0.0,1.0,91,0.00,,,0.00,Wunderground v.1.15,2013-05-26 10:24:00,
2013-05-26 06:30:00,42.6,40.2,30.18,ENE,69,0.0,1.0,91,0.00,,,0.00,Wunderground v.1.15,2013-05-26 10:30:00,
2013-05-26 06:35:00,42.7,40.3,30.18,ENE,69,0.0,1.0,91,0.00,,,0.00,Wunderground v.1.15,2013-05-26 10:35:00,
2013-05-26 06:40:00,42.8,40.4,30.18,ENE,69,0.0,1.0,91,0.00,,,0.00,Wunderground v.1.15,2013-05-26 10:40:00,
2013-05-26 06:46:00,42.8,40.4,30.18,ENE,69,0.0,1.0,91,0.00,,,0.00,Wunderground v.1.15,2013-05-26 10:46:00,
2013-05-26 06:51:00,42.9,40.5,30.18,ENE,69,0.0,1.0,91,0.00,,,0.00,Wunderground v.1.15,2013-05-26 10:51:00,
2013-05-26 06:56:00,43.0,40.8,30.18,ENE,69,0.0,1.0,92,0.00,,,0.00,Wunderground v.1.15,2013-05-26 10:56:00,
2013-05-26 07:01:00,43.2,41.0,30.18,ENE,69,0.0,1.0,92,0.00,,,0.00,Wunderground v.1.15,2013-05-26 11:01:00,
2013-05-26 07:06:00,43.4,41.2,30.18,ENE,69,0.0,0.0,92,0.00,,,0.00,Wunderground v.1.15,2013-05-26 11:06:00,
2013-05-26 07:11:00,43.5,41.0,30.18,ENE,69,0.0,0.0,91,0.00,,,0.00,Wunderground v.1.15,2013-05-26 11:11:00,
2013-05-26 07:17:00,43.9,41.4,30.18,ENE,69,0.0,0.0,91,0.00,,,0.00,Wunderground v.1.15,2013-05-26 11:17:00,
2013-05-26 07:23:00,44.2,41.2,30.18,ENE,69,0.0,0.0,89,0.00,,,0.00,Wunderground v.1.15,2013-05-26 11:23:00,
2013-05-26 07:28:00,44.7,41.7,30.18,ENE,69,0.0,0.0,89,0.00,,,0.00,Wunderground v.1.15,2013-05-26 11:28:00,
2013-05-26 07:33:00,45.2,41.9,30.19,ENE,69,0.0,0.0,88,0.00,,,0.00,Wunderground v.1.15,2013-05-26 11:33:00,
2013-05-26 07:38:00,45.7,42.1,30.19,ENE,69,0.0,0.0,87,0.00,,,0.00,Wunderground v.1.15,2013-05-26 11:38:00,
2013-05-26 07:43:00,46.1,42.4,30.19,ENE,69,0.0,0.0,87,0.00,,,0.00,Wunderground v.1.15,2013-05-26 11:43:00,
2013-05-26 07:49:00,46.5,42.2,30.19,ENE,69,0.0,0.0,85,0.00,,,0.00,Wunderground v.1.15,2013-05-26 11:49:00,
2013-05-26 07:54:00,47.0,42.7,30.19,ENE,69,0.0,0.0,85,0.00,,,0.00,Wunderground v.1.15,2013-05-26 11:54:00,
2013-05-26 08:00:00,47.6,41.7,30.19,ENE,69,0.0,0.0,80,0.00,,,0.00,Wunderground v.1.15,2013-05-26 12:00:00,
2013-05-26 08:07:00,48.4,41.9,30.19,ENE,69,0.0,0.0,78,0.00,,,0.00,Wunderground v.1.15,2013-05-26 12:07:00,
2013-05-26 08:13:00,49.2,42.3,30.19,ENE,69,0.0,0.0,77,0.00,,,0.00,Wunderground v.1.15,2013-05-26 12:13:00,
2013-05-26 08:19:00,49.9,41.9,30.20,ENE,69,0.0,0.0,74,0.00,,,0.00,Wunderground v.1.15,2013-05-26 12:19:00,
2013-05-26 08:24:00,50.4,41.7,30.20,ENE,69,0.0,0.0,72,0.00,,,0.00,Wunderground v.1.15,2013-05-26 12:24:00,
2013-05-26 08:29:00,51.0,42.6,30.20,ENE,69,0.0,0.0,73,0.00,,,0.00,Wunderground v.1.15,2013-05-26 12:29:00,
2013-05-26 08:34:00,51.4,43.4,30.20,ENE,69,0.0,0.0,74,0.00,,,0.00,Wunderground v.1.15,2013-05-26 12:34:00,
2013-05-26 08:40:00,51.8,43.4,30.20,ENE,69,0.0,0.0,73,0.00,,,0.00,Wunderground v.1.15,2013-05-26 12:40:00,
2013-05-26 08:46:00,52.4,42.9,30.20,ENE,69,0.0,0.0,70,0.00,,,0.00,Wunderground v.1.15,2013-05-26 12:46:00,
2013-05-26 08:51:00,53.0,44.2,30.20,ENE,69,0.0,0.0,72,0.00,,,0.00,Wunderground v.1.15,2013-05-26 12:51:00,
2013-05-26 08:57:00,53.3,44.5,30.20,ENE,69,0.0,0.0,72,0.00,,,0.00,Wunderground v.1.15,2013-05-26 12:57:00,
2013-05-26 09:03:00,53.7,43.4,30.20,ENE,69,0.0,1.0,68,0.00,,,0.00,Wunderground v.1.15,2013-05-26 13:03:00,
2013-05-26 09:10:00,54.1,42.2,30.21,ENE,69,0.0,1.0,64,0.00,,,0.00,Wunderground v.1.15,2013-05-26 13:10:00,
2013-05-26 09:15:00,54.3,42.0,30.21,ENE,69,0.0,1.0,63,0.00,,,0.00,Wunderground v.1.15,2013-05-26 13:15:00,
2013-05-26 09:22:00,55.1,38.3,30.21,West,269,1.0,1.0,53,0.00,,,0.00,Wunderground v.1.15,2013-05-26 13:22:00,
2013-05-26 09:28:00,55.8,39.4,30.21,West,269,1.0,1.0,54,0.00,,,0.00,Wunderground v.1.15,2013-05-26 13:28:00,
2013-05-26 09:33:00,56.1,38.7,30.21,West,269,0.0,1.0,52,0.00,,,0.00,Wunderground v.1.15,2013-05-26 13:33:00,
2013-05-26 09:41:00,56.8,38.9,30.21,East,80,0.0,1.0,51,0.00,,,0.00,Wunderground v.1.15,2013-05-26 13:41:00,
2013-05-26 09:47:00,57.1,38.1,30.21,West,259,0.0,3.0,49,0.00,,,0.00,Wunderground v.1.15,2013-05-26 13:47:00,
2013-05-26 09:52:00,57.6,38.6,30.21,SSE,162,0.0,1.0,49,0.00,,,0.00,Wunderground v.1.15,2013-05-26 13:52:00,
2013-05-26 09:58:00,58.0,37.3,30.22,West,281,1.0,5.0,46,0.00,,,0.00,Wunderground v.1.15,2013-05-26 13:58:00,
2013-05-26 10:03:00,58.5,38.3,30.21,SSW,194,2.0,5.0,47,0.00,,,0.00,Wunderground v.1.15,2013-05-26 14:03:00,
2013-05-26 10:10:00,59.1,37.2,30.21,SSE,167,1.0,5.0,44,0.00,,,0.00,Wunderground v.1.15,2013-05-26 14:10:00,
2013-05-26 10:15:00,59.6,40.4,30.21,SSW,200,1.0,5.0,49,0.00,,,0.00,Wunderground v.1.15,2013-05-26 14:15:00,
2013-05-26 10:22:00,60.3,38.9,30.21,South,190,0.0,5.0,45,0.00,,,0.00,Wunderground v.1.15,2013-05-26 14:22:00,
2013-05-26 10:27:00,60.9,38.8,30.21,SSW,201,0.0,5.0,44,0.00,,,0.00,Wunderground v.1.15,2013-05-26 14:27:00,
2013-05-26 10:33:00,61.2,37.3,30.21,East,97,1.0,5.0,41,0.00,,,0.00,Wunderground v.1.15,2013-05-26 14:33:00,
2013-05-26 10:38:00,61.5,37.6,30.20,ESE,111,1.0,5.0,41,0.00,,,0.00,Wunderground v.1.15,2013-05-26 14:38:00,
2013-05-26 10:45:00,62.0,40.4,30.20,West,272,1.0,5.0,45,0.00,,,0.00,Wunderground v.1.15,2013-05-26 14:45:00,
2013-05-26 10:51:00,62.4,37.1,30.20,East,84,1.0,5.0,39,0.00,,,0.00,Wunderground v.1.15,2013-05-26 14:51:00,
2013-05-26 10:58:00,62.9,39.4,30.19,SSW,206,1.0,5.0,42,0.00,,,0.00,Wunderground v.1.15,2013-05-26 14:58:00,
2013-05-26 11:05:00,63.4,40.5,30.19,WSW,258,1.0,5.0,43,0.00,,,0.00,Wunderground v.1.15,2013-05-26 15:05:00,
2013-05-26 11:10:00,63.4,38.6,30.19,South,181,1.0,5.0,40,0.00,,,0.00,Wunderground v.1.15,2013-05-26 15:10:00,
2013-05-26 11:16:00,63.5,39.4,30.19,WSW,252,1.0,5.0,41,0.00,,,0.00,Wunderground v.1.15,2013-05-26 15:16:00,
2013-05-26 11:21:00,63.8,38.4,30.19,WSW,256,0.0,5.0,39,0.00,,,0.00,Wunderground v.1.15,2013-05-26 15:21:00,
2013-05-26 11:27:00,64.2,37.4,30.20,SE,131,0.0,5.0,37,0.00,,,0.00,Wunderground v.1.15,2013-05-26 15:27:00,
2013-05-26 11:34:00,64.7,35.7,30.19,SSE,164,1.0,5.0,34,0.00,,,0.00,Wunderground v.1.15,2013-05-26 15:34:00,
2013-05-26 11:39:00,64.8,37.2,30.19,WSW,250,1.0,8.0,36,0.00,,,0.00,Wunderground v.1.15,2013-05-26 15:39:00,
2013-05-26 11:45:00,64.7,37.8,30.19,ENE,64,2.0,5.0,37,0.00,,,0.00,Wunderground v.1.15,2013-05-26 15:45:00,
2013-05-26 11:50:00,65.0,36.7,30.19,ENE,61,1.0,5.0,35,0.00,,,0.00,Wunderground v.1.15,2013-05-26 15:50:00,
2013-05-26 11:56:00,65.5,36.4,30.19,West,279,1.0,5.0,34,0.00,,,0.00,Wunderground v.1.15,2013-05-26 15:56:00,
2013-05-26 12:02:00,65.4,37.7,30.19,WSW,246,2.0,2.0,36,0.00,,,0.00,Wunderground v.1.15,2013-05-26 16:02:00,
2013-05-26 12:08:00,65.8,38.8,30.19,ENE,58,1.0,8.0,37,0.00,,,0.00,Wunderground v.1.15,2013-05-26 16:08:00,
2013-05-26 12:16:00,66.2,36.2,30.19,SE,131,2.0,8.0,33,0.00,,,0.00,Wunderground v.1.15,2013-05-26 16:16:00,
2013-05-26 12:26:00,66.5,38.7,30.19,NW,316,2.0,8.0,36,0.00,,,0.00,Wunderground v.1.15,2013-05-26 16:26:00,
2013-05-26 12:32:00,66.7,36.7,30.18,West,266,2.0,2.0,33,0.00,,,0.00,Wunderground v.1.15,2013-05-26 16:32:00,
2013-05-26 12:37:00,66.9,37.6,30.17,West,269,2.0,8.0,34,0.00,,,0.00,Wunderground v.1.15,2013-05-26 16:37:00,
2013-05-26 12:42:00,67.6,35.9,30.17,West,266,1.0,8.0,31,0.00,,,0.00,Wunderground v.1.15,2013-05-26 16:42:00,
2013-05-26 12:48:00,67.8,35.2,30.17,ENE,70,1.0,8.0,30,0.00,,,0.00,Wunderground v.1.15,2013-05-26 16:48:00,
2013-05-26 12:54:00,68.1,36.3,30.17,West,264,0.0,8.0,31,0.00,,,0.00,Wunderground v.1.15,2013-05-26 16:54:00,
2013-05-26 13:00:00,68.0,33.7,30.16,WNW,288,1.0,8.0,28,0.00,,,0.00,Wunderground v.1.15,2013-05-26 17:00:00,
2013-05-26 13:07:00,68.0,42.1,30.15,WNW,288,1.0,10.0,39,0.00,,,0.00,Wunderground v.1.15,2013-05-26 17:07:00,
2013-05-26 13:13:00,68.8,35.2,30.16,WNW,300,1.0,10.0,29,0.00,,,0.00,Wunderground v.1.15,2013-05-26 17:13:00,
2013-05-26 13:18:00,69.0,38.7,30.15,WNW,290,1.0,10.0,33,0.00,,,0.00,Wunderground v.1.15,2013-05-26 17:18:00,
2013-05-26 13:24:00,70.1,38.9,30.14,WNW,282,0.0,10.0,32,0.00,,,0.00,Wunderground v.1.15,2013-05-26 17:24:00,
2013-05-26 13:30:00,70.8,37.0,30.14,NNW,335,0.0,10.0,29,0.00,,,0.00,Wunderground v.1.15,2013-05-26 17:30:00,
2013-05-26 13:35:00,71.2,37.3,30.14,NE,39,0.0,10.0,29,0.00,,,0.00,Wunderground v.1.15,2013-05-26 17:35:00,
2013-05-26 13:40:00,70.7,31.1,30.14,WNW,284,2.0,10.0,23,0.00,,,0.00,Wunderground v.1.15,2013-05-26 17:40:00,
2013-05-26 13:47:00,70.3,37.4,30.14,WNW,288,2.0,10.0,30,0.00,,,0.00,Wunderground v.1.15,2013-05-26 17:47:00,
2013-05-26 13:52:00,70.2,33.7,30.13,West,271,1.0,1.0,26,0.00,,,0.00,Wunderground v.1.15,2013-05-26 17:52:00,
2013-05-26 13:57:00,70.5,33.9,30.13,West,268,1.0,10.0,26,0.00,,,0.00,Wunderground v.1.15,2013-05-26 17:57:00,
2013-05-26 14:02:00,70.8,38.7,30.13,NNE,25,1.0,9.0,31,0.00,,,0.00,Wunderground v.1.15,2013-05-26 18:02:00,
2013-05-26 14:08:00,71.3,38.2,30.13,WSW,250,1.0,9.0,30,0.00,,,0.00,Wunderground v.1.15,2013-05-26 18:08:00,
2013-05-26 14:13:00,71.7,39.4,30.12,SE,135,1.0,9.0,31,0.00,,,0.00,Wunderground v.1.15,2013-05-26 18:13:00,
2013-05-26 14:19:00,71.6,34.9,30.12,WSW,242,2.0,9.0,26,0.00,,,0.00,Wunderground v.1.15,2013-05-26 18:19:00,
2013-05-26 14:25:00,71.0,35.3,30.12,West,277,3.0,9.0,27,0.00,,,0.00,Wunderground v.1.15,2013-05-26 18:25:00,
2013-05-26 14:31:00,70.8,35.1,30.12,West,259,3.0,9.0,27,0.00,,,0.00,Wunderground v.1.15,2013-05-26 18:31:00,
2013-05-26 14:39:00,71.3,42.2,30.12,SW,222,2.0,9.0,35,0.00,,,0.00,Wunderground v.1.15,2013-05-26 18:39:00,
2013-05-26 14:44:00,71.5,36.7,30.12,NE,38,3.0,9.0,28,0.00,,,0.00,Wunderground v.1.15,2013-05-26 18:44:00,
2013-05-26 14:54:00,71.3,33.6,30.12,WSW,242,4.0,9.0,25,0.00,,,0.00,Wunderground v.1.15,2013-05-26 18:54:00,
2013-05-26 15:00:00,71.4,36.6,30.12,WSW,240,2.0,9.0,28,0.00,,,0.00,Wunderground v.1.15,2013-05-26 19:00:00,
2013-05-26 15:06:00,72.3,38.2,30.11,SW,234,1.0,11.0,29,0.00,,,0.00,Wunderground v.1.15,2013-05-26 19:06:00,
2013-05-26 15:11:00,72.8,36.9,30.12,West,276,2.0,11.0,27,0.00,,,0.00,Wunderground v.1.15,2013-05-26 19:11:00,
2013-05-26 15:17:00,73.0,36.1,30.12,WSW,257,2.0,11.0,26,0.00,,,0.00,Wunderground v.1.15,2013-05-26 19:17:00,
2013-05-26 15:23:00,73.4,37.4,30.11,West,281,1.0,11.0,27,0.00,,,0.00,Wunderground v.1.15,2013-05-26 19:23:00,
2013-05-26 15:28:00,73.4,34.4,30.11,West,266,2.0,11.0,24,0.00,,,0.00,Wunderground v.1.15,2013-05-26 19:28:00,
2013-05-26 15:33:00,73.3,37.3,30.12,WSW,241,3.0,11.0,27,0.00,,,0.00,Wunderground v.1.15,2013-05-26 19:33:00,
2013-05-26 15:38:00,73.4,35.4,30.11,WSW,238,2.0,11.0,25,0.00,,,0.00,Wunderground v.1.15,2013-05-26 19:38:00,
2013-05-26 15:43:00,73.5,41.8,30.11,SW,227,2.0,11.0,32,0.00,,,0.00,Wunderground v.1.15,2013-05-26 19:43:00,
2013-05-26 15:49:00,74.1,39.8,30.11,North,350,1.0,11.0,29,0.00,,,0.00,Wunderground v.1.15,2013-05-26 19:49:00,
2013-05-26 15:54:00,74.5,40.1,30.10,North,5,1.0,11.0,29,0.00,,,0.00,Wunderground v.1.15,2013-05-26 19:54:00,
2013-05-26 16:00:00,74.7,35.5,30.10,SSW,211,1.0,11.0,24,0.00,,,0.00,Wunderground v.1.15,2013-05-26 20:00:00,
2013-05-26 16:06:00,74.5,33.1,30.10,WSW,254,2.0,11.0,22,0.00,,,0.00,Wunderground v.1.15,2013-05-26 20:06:00,
2013-05-26 16:11:00,74.4,39.2,30.10,NNW,329,1.0,11.0,28,0.00,,,0.00,Wunderground v.1.15,2013-05-26 20:11:00,
2013-05-26 16:16:00,74.5,36.4,30.10,West,271,1.0,11.0,25,0.00,,,0.00,Wunderground v.1.15,2013-05-26 20:16:00,
2013-05-26 16:22:00,74.9,35.7,30.10,SE,136,1.0,1.0,24,0.00,,,0.00,Wunderground v.1.15,2013-05-26 20:22:00,
2013-05-26 16:27:00,75.2,36.9,30.09,NNW,343,1.0,11.0,25,0.00,,,0.00,Wunderground v.1.15,2013-05-26 20:27:00,
2013-05-26 16:33:00,75.6,32.9,30.09,WSW,240,1.0,11.0,21,0.00,,,0.00,Wunderground v.1.15,2013-05-26 20:33:00,
2013-05-26 16:39:00,75.0,33.6,30.09,SSW,201,2.0,11.0,22,0.00,,,0.00,Wunderground v.1.15,2013-05-26 20:39:00,
2013-05-26 16:44:00,75.1,35.8,30.09,WSW,257,2.0,11.0,24,0.00,,,0.00,Wunderground v.1.15,2013-05-26 20:44:00,
2013-05-26 16:49:00,75.5,39.2,30.09,SW,228,1.0,11.0,27,0.00,,,0.00,Wunderground v.1.15,2013-05-26 20:49:00,
2013-05-26 16:55:00,75.5,30.3,30.09,West,259,1.0,11.0,19,0.00,,,0.00,Wunderground v.1.15,2013-05-26 20:55:00,
2013-05-26 17:00:00,75.1,32.5,30.09,SSE,150,2.0,11.0,21,0.00,,,0.00,Wunderground v.1.15,2013-05-26 21:00:00,
2013-05-26 17:06:00,75.2,37.9,30.09,SW,221,1.0,11.0,26,0.00,,,0.00,Wunderground v.1.15,2013-05-26 21:06:00,
2013-05-26 17:11:00,75.5,38.2,30.09,SW,227,0.0,11.0,26,0.00,,,0.00,Wunderground v.1.15,2013-05-26 21:11:00,
2013-05-26 17:17:00,75.8,35.3,30.09,NNW,344,0.0,11.0,23,0.00,,,0.00,Wunderground v.1.15,2013-05-26 21:17:00,
2013-05-26 17:22:00,75.9,37.5,30.09,West,266,0.0,11.0,25,0.00,,,0.00,Wunderground v.1.15,2013-05-26 21:22:00,
2013-05-26 17:27:00,75.6,35.2,30.09,SSW,213,1.0,11.0,23,0.00,,,0.00,Wunderground v.1.15,2013-05-26 21:27:00,
2013-05-26 17:32:00,75.5,31.6,30.09,WSW,256,2.0,11.0,20,0.00,,,0.00,Wunderground v.1.15,2013-05-26 21:32:00,
2013-05-26 17:38:00,75.4,36.1,30.08,SW,225,1.0,11.0,24,0.00,,,0.00,Wunderground v.1.15,2013-05-26 21:38:00,
2013-05-26 17:43:00,75.7,38.4,30.09,SW,223,0.0,11.0,26,0.00,,,0.00,Wunderground v.1.15,2013-05-26 21:43:00,
2013-05-26 17:48:00,76.0,34.4,30.09,SW,223,0.0,11.0,22,0.00,,,0.00,Wunderground v.1.15,2013-05-26 21:48:00,
2013-05-26 17:54:00,76.4,43.5,30.09,SW,223,0.0,11.0,31,0.00,,,0.00,Wunderground v.1.15,2013-05-26 21:54:00,
2013-05-26 17:59:00,76.7,33.8,30.09,South,184,0.0,11.0,21,0.00,,,0.00,Wunderground v.1.15,2013-05-26 21:59:00,
2013-05-26 18:06:00,76.8,39.3,30.08,WSW,251,0.0,6.0,26,0.00,,,0.00,Wunderground v.1.15,2013-05-26 22:06:00,
2013-05-26 18:12:00,76.6,31.2,30.08,WSW,242,0.0,6.0,19,0.00,,,0.00,Wunderground v.1.15,2013-05-26 22:12:00,
2013-05-26 18:18:00,76.6,41.0,30.08,WSW,242,0.0,6.0,28,0.00,,,0.00,Wunderground v.1.15,2013-05-26 22:18:00,
2013-05-26 18:23:00,76.8,32.7,30.08,NW,306,0.0,6.0,20,0.00,,,0.00,Wunderground v.1.15,2013-05-26 22:23:00,
2013-05-26 18:28:00,76.9,36.3,30.08,NW,317,0.0,6.0,23,0.00,,,0.00,Wunderground v.1.15,2013-05-26 22:28:00,
2013-05-26 18:34:00,77.2,39.6,30.09,NW,318,0.0,6.0,26,0.00,,,0.00,Wunderground v.1.15,2013-05-26 22:34:00,
2013-05-26 18:40:00,77.0,44.0,30.09,NW,318,0.0,6.0,31,0.00,,,0.00,Wunderground v.1.15,2013-05-26 22:40:00,
2013-05-26 18:45:00,76.6,49.1,30.09,NW,318,0.0,6.0,38,0.00,,,0.00,Wunderground v.1.15,2013-05-26 22:45:00,
2013-05-26 18:50:00,76.2,47.3,30.09,NW,318,0.0,6.0,36,0.00,,,0.00,Wunderground v.1.15,2013-05-26 22:50:00,
2013-05-26 18:55:00,75.7,51.6,30.09,NW,318,0.0,6.0,43,0.00,,,0.00,Wunderground v.1.15,2013-05-26 22:55:00,
2013-05-26 19:00:00,75.5,51.4,30.09,NW,318,0.0,6.0,43,0.00,,,0.00,Wunderground v.1.15,2013-05-26 23:00:00,
2013-05-26 19:06:00,75.0,49.7,30.09,NW,318,0.0,5.0,41,0.00,,,0.00,Wunderground v.1.15,2013-05-26 23:06:00,
2013-05-26 19:11:00,74.4,46.4,30.10,NW,318,0.0,5.0,37,0.00,,,0.00,Wunderground v.1.15,2013-05-26 23:11:00,
2013-05-26 19:16:00,73.8,46.6,30.10,NW,318,0.0,5.0,38,0.00,,,0.00,Wunderground v.1.15,2013-05-26 23:16:00,
2013-05-26 19:22:00,73.0,43.0,30.10,NW,318,0.0,5.0,34,0.00,,,0.00,Wunderground v.1.15,2013-05-26 23:22:00,
2013-05-26 19:28:00,71.8,42.7,30.10,NW,318,0.0,5.0,35,0.00,,,0.00,Wunderground v.1.15,2013-05-26 23:28:00,
2013-05-26 19:33:00,70.6,43.1,30.10,NW,318,0.0,5.0,37,0.00,,,0.00,Wunderground v.1.15,2013-05-26 23:33:00,
2013-05-26 19:39:00,69.5,43.4,30.10,NW,318,0.0,5.0,39,0.00,,,0.00,Wunderground v.1.15,2013-05-26 23:39:00,
2013-05-26 19:44:00,68.5,43.2,30.11,NW,318,0.0,5.0,40,0.00,,,0.00,Wunderground v.1.15,2013-05-26 23:44:00,
2013-05-26 19:49:00,67.6,44.3,30.10,NW,318,0.0,5.0,43,0.00,,,0.00,Wunderground v.1.15,2013-05-26 23:49:00,
2013-05-26 19:55:00,66.4,45.5,30.11,NW,318,0.0,5.0,47,0.00,,,0.00,Wunderground v.1.15,2013-05-26 23:55:00,
2013-05-26 20:01:00,65.5,45.3,30.11,NW,318,0.0,5.0,48,0.00,,,0.00,Wunderground v.1.15,2013-05-27 00:01:00,
2013-05-26 20:06:00,64.8,44.6,30.11,NW,318,0.0,0.0,48,0.00,,,0.00,Wunderground v.1.15,2013-05-27 00:06:00,
2013-05-26 20:11:00,64.1,44.5,30.11,NW,318,0.0,0.0,49,0.00,,,0.00,Wunderground v.1.15,2013-05-27 00:11:00,
2013-05-26 20:17:00,63.1,44.7,30.11,NW,318,0.0,0.0,51,0.00,,,0.00,Wunderground v.1.15,2013-05-27 00:17:00,
2013-05-26 20:23:00,62.2,44.3,30.11,NW,318,0.0,0.0,52,0.00,,,0.00,Wunderground v.1.15,2013-05-27 00:23:00,
2013-05-26 20:28:00,61.6,45.3,30.12,NW,318,0.0,0.0,55,0.00,,,0.00,Wunderground v.1.15,2013-05-27 00:28:00,
2013-05-26 20:33:00,61.0,42.7,30.12,NW,318,0.0,0.0,51,0.00,,,0.00,Wunderground v.1.15,2013-05-27 00:33:00,
2013-05-26 20:39:00,60.1,43.4,30.12,NW,318,0.0,0.0,54,0.00,,,0.00,Wunderground v.1.15,2013-05-27 00:39:00,
2013-05-26 20:45:00,59.5,43.3,30.13,NW,318,0.0,0.0,55,0.00,,,0.00,Wunderground v.1.15,2013-05-27 00:45:00,
2013-05-26 20:50:00,59.1,44.8,30.13,NW,318,0.0,0.0,59,0.00,,,0.00,Wunderground v.1.15,2013-05-27 00:50:00,
2013-05-26 20:56:00,58.6,44.8,30.13,NW,318,0.0,0.0,60,0.00,,,0.00,Wunderground v.1.15,2013-05-27 00:56:00,
2013-05-26 21:01:00,58.1,45.6,30.13,NW,318,0.0,0.0,63,0.00,,,0.00,Wunderground v.1.15,2013-05-27 01:01:00,
2013-05-26 21:06:00,57.6,44.2,30.14,NW,318,0.0,0.0,61,0.00,,,0.00,Wunderground v.1.15,2013-05-27 01:06:00,
2013-05-26 21:12:00,57.1,43.3,30.14,NW,318,0.0,0.0,60,0.00,,,0.00,Wunderground v.1.15,2013-05-27 01:12:00,
2013-05-26 21:18:00,56.6,44.1,30.14,NW,318,0.0,0.0,63,0.00,,,0.00,Wunderground v.1.15,2013-05-27 01:18:00,
2013-05-26 21:23:00,56.2,43.8,30.14,NW,318,0.0,0.0,63,0.00,,,0.00,Wunderground v.1.15,2013-05-27 01:23:00,
2013-05-26 21:28:00,55.8,43.8,30.14,NW,318,0.0,0.0,64,0.00,,,0.00,Wunderground v.1.15,2013-05-27 01:28:00,
2013-05-26 21:34:00,55.4,44.2,30.15,NW,318,0.0,0.0,66,0.00,,,0.00,Wunderground v.1.15,2013-05-27 01:34:00,
2013-05-26 21:39:00,55.1,43.9,30.15,NW,318,0.0,0.0,66,0.00,,,0.00,Wunderground v.1.15,2013-05-27 01:39:00,
2013-05-26 21:45:00,54.8,44.8,30.15,NW,318,0.0,0.0,69,0.00,,,0.00,Wunderground v.1.15,2013-05-27 01:45:00,
2013-05-26 21:50:00,54.4,44.8,30.16,NW,318,0.0,0.0,70,0.00,,,0.00,Wunderground v.1.15,2013-05-27 01:50:00,
2013-05-26 21:56:00,54.0,43.7,30.16,NW,318,0.0,0.0,68,0.00,,,0.00,Wunderground v.1.15,2013-05-27 01:56:00,
2013-05-26 22:01:00,53.7,44.9,30.16,NW,318,0.0,0.0,72,0.00,,,0.00,Wunderground v.1.15,2013-05-27 02:01:00,
2013-05-26 22:06:00,53.5,44.3,30.17,NW,318,0.0,0.0,71,0.00,,,0.00,Wunderground v.1.15,2013-05-27 02:06:00,
2013-05-26 22:12:00,53.2,44.8,30.17,NW,318,0.0,0.0,73,0.00,,,0.00,Wunderground v.1.15,2013-05-27 02:12:00,
2013-05-26 22:17:00,53.0,44.2,30.17,NW,318,0.0,0.0,72,0.00,,,0.00,Wunderground v.1.15,2013-05-27 02:17:00,
2013-05-26 22:22:00,52.7,43.6,30.17,NW,318,0.0,0.0,71,0.00,,,0.00,Wunderground v.1.15,2013-05-27 02:22:00,
2013-05-26 22:27:00,52.5,43.7,30.17,NW,318,0.0,0.0,72,0.00,,,0.00,Wunderground v.1.15,2013-05-27 02:27:00,
2013-05-26 22:33:00,52.2,43.8,30.17,NW,318,0.0,0.0,73,0.00,,,0.00,Wunderground v.1.15,2013-05-27 02:33:00,
2013-05-26 22:38:00,52.0,42.1,30.17,NW,318,0.0,0.0,69,0.00,,,0.00,Wunderground v.1.15,2013-05-27 02:38:00,
2013-05-26 22:45:00,51.7,44.0,30.17,NW,318,0.0,0.0,75,0.00,,,0.00,Wunderground v.1.15,2013-05-27 02:45:00,
2013-05-26 22:51:00,51.4,44.1,30.17,NW,318,0.0,0.0,76,0.00,,,0.00,Wunderground v.1.15,2013-05-27 02:51:00,
2013-05-26 22:56:00,51.2,44.2,30.18,NW,318,0.0,0.0,77,0.00,,,0.00,Wunderground v.1.15,2013-05-27 02:56:00,
2013-05-26 23:02:00,50.9,42.9,30.18,NW,318,0.0,0.0,74,0.00,,,0.00,Wunderground v.1.15,2013-05-27 03:02:00,
2013-05-26 23:08:00,50.6,42.3,30.18,NW,318,0.0,0.0,73,0.00,,,0.00,Wunderground v.1.15,2013-05-27 03:08:00,
2013-05-26 23:13:00,50.4,42.8,30.18,NW,318,0.0,0.0,75,0.00,,,0.00,Wunderground v.1.15,2013-05-27 03:13:00,
2013-05-26 23:19:00,50.1,42.8,30.18,NW,318,0.0,0.0,76,0.00,,,0.00,Wunderground v.1.15,2013-05-27 03:19:00,
2013-05-26 23:24:00,49.9,43.0,30.18,NW,318,0.0,0.0,77,0.00,,,0.00,Wunderground v.1.15,2013-05-27 03:24:00,
2013-05-26 23:29:00,49.7,42.8,30.18,NW,318,0.0,0.0,77,0.00,,,0.00,Wunderground v.1.15,2013-05-27 03:29:00,
2013-05-26 23:35:00,49.4,42.8,30.18,NW,318,0.0,0.0,78,0.00,,,0.00,Wunderground v.1.15,2013-05-27 03:35:00,
2013-05-26 23:41:00,49.2,42.6,30.19,NW,318,0.0,0.0,78,0.00,,,0.00,Wunderground v.1.15,2013-05-27 03:41:00,
2013-05-26 23:46:00,49.0,42.4,30.19,NW,318,0.0,0.0,78,0.00,,,0.00,Wunderground v.1.15,2013-05-27 03:46:00,
2013-05-26 23:51:00,48.8,42.6,30.19,NW,318,0.0,0.0,79,0.00,,,0.00,Wunderground v.1.15,2013-05-27 03:51:00,
2013-05-26 23:57:00,48.7,42.8,30.18,NW,318,0.0,0.0,80,0.00,,,0.00,Wunderground v.1.15,2013-05-27 03:57:00,